Resoconti di bolidi

Jul 01, 2021 - Jul 31, 2021
Trovati resoconti: 2190  in July 2021  Pagina 43 / 44
IDDate e tempo T.U. (Tempo Universale)Data e tempo localeRegioneCittàStatoDur.MagnitudineSuono differitoSuono contemporaneoFrag.OsservatoreLivello di esperienza
Evento 3638-2021
3638g2021-07-04 03:50 UT2021-07-03 21:50 MDTUS MT≈7,5s -11---AmandaY 3
3638h2021-07-04 05:00 UT2021-07-03 23:00 MDTUS AftonWY≈3,5s -13??-EricR 3
3638i2021-07-04 04:53 UT2021-07-03 22:53 MDTUS FrenchtownMT≈3,5s -15---JimF 4
3638j2021-07-04 04:40 UT2021-07-03 22:40 MDTUS ID≈3,5s -13??-StaciaV 3
3638k2021-07-04 05:00 UT2021-07-03 23:00 MDTUS MenanID≈3,5s -10??-LyndsiW 2
3638l2021-07-04 04:15 UT2021-07-03 22:15 MDTUS MT≈1,5s 0---MJ 1
3638m2021-07-04 04:30 UT2021-07-03 22:30 MDTUS CastlefordID≈1,5s -20--?NellieN 1
3638n2021-07-04 04:45 UT2021-07-03 22:45 MDTUS ID≈3,5s -9---JohnT 3
3638o2021-07-04 04:40 UT2021-07-03 22:40 MDTUS ID≈3,5s -19--?juliaS 3
3638p2021-07-04 04:55 UT2021-07-03 22:55 MDTUS ID≈1,5s -10--AnnB 3
3638q2021-07-04 04:30 UT2021-07-03 22:30 MDTUS Mountain HomeID≈7,5s -12---DanielleR 1
3638r2021-07-04 04:52 UT2021-07-03 22:52 MDTUS BoiseID≈3,5s -16??-JimC 3
3638s2021-07-04 04:52 UT2021-07-03 22:52 MDTUS BoiseID≈1,5s -16---WilliamS 4
3638t2021-07-04 04:52 UT2021-07-03 22:52 MDTUS Garden CityID<1s -14--?SB 3
3638u2021-07-04 04:52 UT2021-07-03 22:52 MDTUS BoiseID≈3,5s -18???KorriA 2
3638v2021-07-04 04:52 UT2021-07-03 22:52 MDTUS BoiseID≈3,5s -20--?CG 2
3638w2021-07-04 04:40 UT2021-07-03 22:40 MDTUS BoiseID≈1,5s -22---DoreenG 1
3638x2021-07-04 04:52 UT2021-07-03 22:52 MDTUS KetchumID≈3,5s 0--DavidB 3
3638y2021-07-04 04:50 UT2021-07-03 22:50 MDTUS DonnellyID≈1,5s -21--NicholasB 1
3638z2021-07-04 05:05 UT2021-07-03 23:05 MDTUS ID≈7,5s -20-CevynR 3
Evento 3637-2021
3637a2021-07-04 21:25 UT2021-07-04 23:25 CESTIT Castelnuovo di GarfagnanaToscana≈3,5s -14--?NicolaS 1
3637b2021-07-04 21:25 UT2021-07-04 23:25 CESTIT ValenzaPiemonte≈3,5s -9---SimoneS 5
3637c2021-07-04 21:25 UT2021-07-04 23:25 CESTIT TrisobbioPiemonte≈7,5s -15---MassimoI 3
3637d2021-07-04 21:25 UT2021-07-04 23:25 CESTIT StradellaLombardia≈3,5s -9--annaK 1
3637e2021-07-04 21:26 UT2021-07-04 23:26 CESTIT FizzonascoLombardia≈1,5s -7-??SergioZ 2
3637f2021-07-04 21:24 UT2021-07-04 23:24 CESTIT MilanoLombardia≈3,5s -18---LiaD 1
3637g2021-07-04 22:00 UT2021-07-05 00:00 CESTIT Garbagnate MilaneseLombardia≈1,5s -7---LucaD 5
3637h2021-07-04 21:24 UT2021-07-04 23:24 CESTIT CuneoPiemonte≈3,5s -17---AndreaM 3
3637i2021-07-04 21:40 UT2021-07-04 23:40 CESTIT AlbioloLombardia≈3,5s -10---EdoardoC 1
3637j2021-07-04 21:21 UT2021-07-04 23:21 CESTIT GandellinoLombardia≈3,5s -6---LucaM 3
3637k2021-07-04 21:35 UT2021-07-04 23:35 CESTIT AlaTrentino-Alto Adige≈1,5s -8---MauraR 2
3637l2021-07-04 21:12 UT2021-07-04 23:12 CESTFR Saint-Laurent-du-VarProvence-Alpes-Côte d'Azur≈1,5s -7---YvanB 3
3637m2021-07-04 21:26 UT2021-07-04 23:26 CESTIT ArcoTrentino-Alto Adige≈3,5s -12---GianniG 4
3637n2021-07-04 21:25 UT2021-07-04 23:25 CESTFR Rochefort-SamsonAuvergne-Rhône-Alpes≈1,5s 0???SylvineD 1
3637o2021-07-04 21:33 UT2021-07-04 23:33 CESTFR Vaison-la-RomaineProvence-Alpes-Côte d'Azur≈3,5s -12---FloreS 1
3637p2021-07-04 21:00 UT2021-07-04 23:00 CESTIT PiacenzaEmilia-Romagna≈1,5s -6---DanielaG 2
3637q2021-07-04 21:25 UT2021-07-04 23:25 CESTIT MagentaLombardia≈3,5s -5--?SamanthaM 1
3637r2021-07-04 21:25 UT2021-07-04 23:25 CESTCH MonteggioTicino≈7,5s -6??-StefanoK 4
3637s2021-07-04 21:25 UT2021-07-04 23:25 CESTIT Lombardia≈7,5s -15???SebastianoR 2
3637t2021-07-04 21:30 UT2021-07-04 23:30 CESTIT CeranoPiemonte≈3,5s -12---PaoloD 2
3637u2021-07-04 21:40 UT2021-07-04 23:40 CESTIT GaggianoLombardia<1s -12---Maria CarmelaS 1
3637v2021-07-04 21:15 UT2021-07-04 23:15 CESTIT TreviglioLombardia≈1,5s -13---MariangelaS 1
Evento 3635-2021
3635a2021-07-03 02:41 UT2021-07-02 22:41 EDTUS LawrencevilleGA<1s -5--?JonathanS 2
Evento 3634-2021
3634a2021-07-03 02:30 UT2021-07-02 22:30 EDTUS Great FallsVA<1s -7--?JonthanS 2
3634b2021-07-03 02:38 UT2021-07-02 22:38 EDTUS WinchesterVA≈1,5s -14--?NikeS 3
3634c2021-07-03 03:05 UT2021-07-02 23:05 EDTUS Chester SpringsPA≈3,5s -12---JPM 3
Evento 3633-2021
3633a2021-07-02 22:45 UT2021-07-03 00:45 CESTIT FiumicinoLazio≈1,5s -20--MauroP 2
3633b2021-07-02 22:50 UT2021-07-03 00:50 CESTIT FavignanaSicilia≈3,5s -14---ChiaraS 1
Evento 3632-2021
3632a2021-07-02 11:00 UT2021-07-02 23:00 NZSTNZ DunedinOtago≈1,5s -15---NickB 1
Evento 3631-2021
3631a2021-07-02 06:47 UT2021-07-01 23:47 PDTUS OlanchaCA≈1,5s -5??-MikeL 5